Home   Weather   Duluth   Past weeks

Flag for USA Past Weather in Duluth, Minnesota, USA — Yesterday and Last 2 Weeks

Now
52 °F

Light rain. Overcast.


Feels Like: 47 °F
Forecast: 51 / 56 °F
Wind: 16 mph from West

Location: Sky Harbor Airport

Current Time: Sep 26, 2016 at 7:20:37 AM

Latest Report: Sep 26, 2016 at 6:54 AM


Visibility: 10 mi

Pressure: 29.72 "Hg

Humidity: 88%

Dew Point: 48 °F

Location of DuluthLocation

Past Weather in Duluth — Graph

°F

Duluth Temperature Yesterday

Maximum temperature yesterday: 70 °F (at 1:14 PM)
Minimum temperature yesterday: 55 °F (at 10:34 PM)
Average temperature yesterday: 62 °F

High & Low Weather Summary for the Past Weeks

 TemperatureHumidityPressure
High79 °F (Sep 11, 2:54 PM)100% (Sep 15, 8:14 PM)30.35 "Hg (Sep 15, 8:14 PM)
Low45 °F (Sep 14, 5:13 AM)27% (Sep 19, 4:34 PM)29.69 "Hg (Sep 18, 11:13 PM)
Average61 °F82%30.00 "Hg
* Reported Sep 11 6:13 AM — Sep 26 6:14 AM, Duluth, Weather by CustomWeather, © 2016

Note: Actual official high and low records may vary slightly from our data, if they occured in-between our weather recording intervals... More about our weather records

Advertising

Duluth Weather History for the Previous 24 Hours

Scroll right to see more
 ConditionsComfort  
Time TempWeatherWind HumidityBarometerVisibility
6:14 AM
Mon, Sep 26
52 °FOvercast.17 mph88%29.72 "Hg10 mi
5:54 AM52 °FLight rain. Overcast.16 mph88%29.72 "Hg10 mi
5:34 AM52 °FDrizzle. Overcast.17 mph88%29.72 "Hg10 mi
5:14 AM52 °FRain. Overcast.18 mph88%29.72 "Hg10 mi
4:53 AM52 °FDrizzle. Overcast.22 mph88%29.72 "Hg10 mi
4:34 AM52 °FDrizzle. Overcast.14 mph88%29.72 "Hg10 mi
4:14 AM52 °FDrizzle. Mostly cloudy.15 mph88%29.72 "Hg10 mi
3:53 AM52 °FLight rain. Overcast.16 mph88%29.72 "Hg10 mi
3:34 AM52 °FDrizzle. Overcast.17 mph88%29.72 "Hg10 mi
3:14 AM52 °FDrizzle. Overcast.18 mph88%29.73 "Hg10 mi
2:53 AM52 °FLight rain. Overcast.16 mph88%29.73 "Hg7 mi
2:34 AM52 °FLight rain. Overcast.20 mph88%29.73 "Hg10 mi
2:13 AM52 °FDrizzle. Overcast.15 mph94%29.74 "Hg7 mi
1:54 AM54 °FDrizzle. Mostly cloudy.17 mph88%29.74 "Hg7 mi
1:34 AM54 °FDrizzle. Mostly cloudy.15 mph88%29.75 "Hg7 mi
1:13 AM55 °FOvercast.15 mph82%29.76 "Hg10 mi
12:54 AM55 °FMostly cloudy.21 mph82%29.76 "Hg10 mi
12:34 AM55 °FOvercast.16 mph77%29.77 "Hg10 mi
12:13 AM55 °FOvercast.16 mph77%29.78 "Hg10 mi
11:54 PM
Sun, Sep 25
55 °FOvercast.18 mph82%29.78 "Hg10 mi
11:34 PM55 °FMostly cloudy.15 mph82%29.79 "Hg10 mi
11:13 PM55 °FOvercast.22 mph82%29.80 "Hg10 mi
10:54 PM55 °FOvercast.15 mph88%29.81 "Hg7 mi
10:34 PM55 °FMostly cloudy.16 mph88%29.81 "Hg10 mi
10:13 PM57 °FOvercast.17 mph82%29.82 "Hg10 mi
9:54 PM57 °FMostly cloudy.15 mph82%29.82 "Hg10 mi
9:34 PM57 °FMostly cloudy.20 mph82%29.81 "Hg7 mi
9:13 PM57 °FPassing clouds.10 mph88%29.82 "Hg10 mi
8:54 PM57 °FPartly cloudy.14 mph88%29.81 "Hg10 mi
8:34 PM59 °FLight rain. Overcast.17 mph82%29.81 "Hg7 mi
8:13 PM61 °FMostly cloudy.7 mph77%29.80 "Hg10 mi
7:54 PM61 °FMostly cloudy.13 mph77%29.80 "Hg10 mi
7:34 PM61 °FMostly cloudy.8 mph83%29.80 "Hg10 mi
7:13 PM61 °FOvercast.15 mph83%29.79 "Hg10 mi
6:54 PM61 °FMore clouds than sun.14 mph83%29.79 "Hg10 mi
6:33 PM63 °FMore clouds than sun.15 mph77%29.79 "Hg10 mi
6:14 PM63 °FOvercast.5 mph77%29.78 "Hg10 mi
5:54 PM63 °FOvercast.7 mph77%29.78 "Hg10 mi
5:33 PM63 °FMore clouds than sun.14 mph77%29.78 "Hg10 mi
5:14 PM63 °FMore clouds than sun.8 mph77%29.77 "Hg10 mi
4:54 PM63 °FOvercast.12 mph77%29.77 "Hg10 mi
4:33 PM63 °FMore clouds than sun.10 mph77%29.78 "Hg10 mi
4:14 PM63 °FMostly cloudy.14 mph77%29.78 "Hg10 mi
3:54 PM63 °FMostly cloudy.12 mph77%29.79 "Hg10 mi
3:14 PM63 °FMostly cloudy.17 mph77%29.79 "Hg10 mi
2:54 PM66 °FMostly cloudy.28 mph68%29.77 "Hg10 mi
2:34 PM68 °FMore clouds than sun.21 mph69%29.76 "Hg10 mi
2:14 PM70 °FScattered clouds.25 mph60%29.76 "Hg10 mi
1:54 PM70 °FScattered clouds.26 mph60%29.76 "Hg10 mi
1:34 PM70 °FScattered clouds.21 mph73%29.75 "Hg10 mi
1:14 PM70 °FBroken clouds.14 mph78%29.76 "Hg10 mi
12:53 PM66 °FOvercast.13 mph88%29.77 "Hg10 mi
12:34 PM64 °FPartly sunny.17 mph94%29.78 "Hg10 mi
12:14 PM64 °FSunny.17 mph94%29.78 "Hg10 mi
11:54 AM64 °FScattered clouds.12 mph94%29.78 "Hg10 mi
11:34 AM63 °FFog.No wind100%29.79 "Hg5 mi
11:14 AM61 °FLight rain. Mostly cloudy.No wind94%29.80 "Hg2 mi
10:54 AM63 °FDrizzle. Cloudy.No wind94%29.81 "Hg1 mi
10:34 AM63 °FLight rain. Mostly cloudy.No wind94%29.80 "Hg2 mi
10:14 AM63 °FRain. Mostly cloudy.No wind94%29.80 "Hg4 mi
9:53 AM63 °FRain. Mostly cloudy.3 mph94%29.82 "Hg2 mi
9:34 AM63 °FRain. More clouds than sun.7 mph94%29.82 "Hg3 mi
9:13 AM64 °FLight rain. Overcast.No wind94%29.81 "Hg5 mi
8:54 AM64 °FLight rain. Overcast.No wind94%29.82 "Hg5 mi
8:33 AM64 °FLight rain. Overcast.No wind94%29.83 "Hg7 mi
8:14 AM64 °FLight rain. Overcast.No wind88%29.85 "Hg5 mi
7:54 AM64 °FLight rain. Overcast.No wind88%29.85 "Hg5 mi
7:34 AM64 °FDrizzle. Overcast.No wind94%29.86 "Hg5 mi
7:14 AM64 °FDrizzle. Overcast.No wind94%29.87 "Hg7 mi
Weather by CustomWeather, © 2016

See weather overviewHow to use our weather pages